Lid_Strength_Index
3 3 4 4 4 5 5 5 9 7 6 9 8 10 10 11 12 11 11 11 12 13 14 15 14 14 12 11 12 15 13 16 19 16 12 12 13 15 15 17 18 17 19 20
4 3 4 4 4 5 6 8 8 6 7 12 13 12 13 12 12 13 12 13 13 13 14 16 14 14 11 11 13 15 14 16 20 17 14 13 14 13 13 14 15 18 20 19
4 4 4 4 4 4 5 7 10 9 9 9 11 13 13 14 12 13 12 13 13 14 14 13 15 14 12 11 13 12 13 16 18 20 17 15 16 15 14 15 18 18 18 16
3 3 3 4 4 4 5 8 11 10 12 12 12 12 13 14 14 13 12 13 14 15 16 15 15 14 14 12 11 12 13 17 16 15 14 15 15 15 15 16 16 18 17 16
4 4 4 4 4 5 6 8 9 9 12 12 12 13 13 13 14 13 14 15 13 14 16 15 16 15 15 15 13 13 13 17 16 17 15 15 16 15 15 15 14 15 14 15
4 4 4 4 5 4 7 7 7 8 13 12 12 13 13 13 13 13 12 13 14 14 13 12 12 13 13 13 14 14 15 16 17 20 16 16 18 15 14 14 13 13 16 13
4 4 4 4 4 5 6 7 7 9 12 11 12 12 12 13 13 13 12 12 13 12 10 11 12 13 13 13 13 12 14 15 16 18 17 23 14 12 12 14 13 11 11 10
4 4 4 4 4 5 6 6 7 9 10 11 12 12 12 12 12 13 13 12 11 10 12 14 15 15 15 14 12 12 12 14 17 19 19 16 14 13 13 14 15 11 11 9
5 4 4 4 4 4 5 6 5 7 10 11 10 12 12 12 13 13 12 11 10 11 13 14 18 17 16 16 15 12 12 12 15 17 20 22 14 12 10 11 17 10 9 8
4 4 4 4 4 4 5 6 5 6 9 9 10 11 12 11 11 13 12 12 12 11 13 14 15 16 14 18 17 16 15 15 17 16 18 15 11 11 10 18 16 9 8 7
5 5 4 4 4 3 4 6 5 7 9 8 9 9 10 11 11 13 12 13 13 13 14 14 14 15 14 15 14 15 16 17 17 16 18 19 10 11 13 10 9 7 6 6
4 4 4 5 4 4 4 6 5 6 8 9 7 8 8 9 9 11 11 11 11 11 12 12 12 14 14 15 18 12 17 14 15 15 15 11 9 10 8 7 7 7 6 6
5 5 5 5 5 5 5 6 6 7 9 9 9 10 8 7 8 7 11 10 9 10 9 11 11 14 13 16 15 14 12 11 13 13 12 11 10 9 8 6 6 5 5 5
4 5 5 5 6 5 5 7 6 7 9 13 10 8 9 7 7 7 7 8 7 8 9 11 12 14 12 14 13 14 12 11 13 13 11 10 10 9 8 7 6 5 5 5
3 4 4 5 5 6 6 6 5 6 10 13 12 9 8 8 7 7 7 8 8 10 11 12 13 12 12 12 12 13 11 13 14 14 11 11 10 8 7 7 6 6 7 7
2 2 3 4 5 5 6 9 6 5 6 11 14 9 10 9 8 8 8 7 8 9 11 12 12 10 12 15 15 11 10 9 9 11 9 9 8 7 6 7 7 7 8 8
1 2 2 2 3 5 8 10 8 5 6 11 13 13 10 8 8 8 8 8 8 9 11 13 12 12 11 13 15 11 10 9 9 8 8 10 9 10 8 8 8 7 7 8
0 1 2 3 3 4 7 5 5 4 7 9 14 14 12 9 11 11 8 9 10 11 12 11 12 11 12 14 11 10 9 9 9 9 9 10 9 9 8 8 8 9 9 9
0 1 2 4 5 7 6 3 4 4 7 13 14 15 14 10 10 10 10 10 13 10 13 13 12 14 15 12 11 10 9 10 10 9 10 10 10 10 9 9 9 10 10 10
1 3 6 9 6 3 4 6 8 9 9 10 13 11 12 11 11 11 11 11 13 14 13 11 14 14 10 10 9 9 8 9 9 11 12 12 12 11 9 9 9 9 10 9
4 7 8 5 3 6 8 10 11 11 13 11 11 11 12 10 12 12 10 12 13 16 14 14 15 15 11 10 9 9 8 9 10 10 10 11 10 10 9 9 9 9 9 9
4 5 5 6 8 10 12 13 11 12 14 11 12 11 10 10 9 11 11 13 13 17 12 15 17 13 10 9 9 9 9 9 9 10 10 10 9 8 9 9 9 9 9 9
4 7 9 10 11 14 14 16 14 13 11 10 11 12 11 11 10 11 12 15 16 12 15 16 14 10 9 9 9 9 10 9 10 10 10 10 9 8 8 9 9 9 9 9
9 11 13 12 13 13 12 11 10 10 9 10 10 11 11 10 12 12 15 14 13 16 18 16 13 10 9 9 10 10 10 10 10 11 10 10 9 8 8 9 9 10 10 9
10 10 12 12 9 8 8 8 7 8 8 10 11 11 11 12 13 12 13 15 18 16 16 12 10 9 9 10 10 10 10 10 11 10 10 9 8 8 9 9 9 9 9 9
8 9 9 8 8 9 7 8 9 8 8 9 9 12 13 14 13 14 16 16 17 14 12 10 9 9 10 10 10 10 10 10 11 10 10 9 8 8 9 9 9 10 9 10
9 9 7 7 6 8 7 7 8 7 9 11 11 14 14 11 14 15 14 15 12 10 10 9 9 9 10 10 10 10 9 10 10 10 9 8 7 8 8 10 9 9 9 9